Weather observations for the past three days for
San Jose / Reid / Hillv
| Date | Time (pdt) | Wind (mph) | Vis. (mi.) | Weather | Sky Cond. | Temperature (ºF) | Relative Humidity | Wind Chill (°F) | Heat Index (°F) | Pressure | Precipitation (in) | ||||||
|---|---|---|---|---|---|---|---|---|---|---|---|---|---|---|---|---|---|
| Air | Dwpt | 6 hour | altimeter (in) | sea level (mb) | 1 hr | 3 hr | 6 hr | ||||||||||
| Max. | Min. | ||||||||||||||||
| 02 | 10:47 | SW 6 | 10.00 | Overcast | OVC015 | 59 | 51.8 | 77% | 29.97 | 0.0 | |||||||
| 02 | 09:47 | S 8 | 10.00 | Overcast | OVC015 | 57.2 | 51.8 | 82% | 29.96 | 0.0 | |||||||
| 02 | 08:47 | S 5 | 10.00 | Overcast | OVC015 | 55.4 | 50 | 82% | 29.96 | 0.0 | |||||||
| 02 | 07:47 | S 8 | 10.00 | Overcast | OVC013 | 55.4 | 51.8 | 88% | 29.94 | 0.0 | |||||||
| 01 | 21:47 | NW 7 | 10.00 | A Few Clouds | FEW080 | 57.2 | 51.8 | 82% | 29.96 | 0.0 | |||||||
| 01 | 19:47 | W 9 | 10.00 | A Few Clouds | FEW080 | 62.6 | 51.8 | 68% | 29.91 | 0.0 | |||||||
| 01 | 18:47 | NW 10 | 10.00 | A Few Clouds | FEW080 | 68 | 53.6 | 60% | 29.9 | 0.0 | |||||||
| 01 | 17:47 | NW 12 | 10.00 | A Few Clouds | FEW080 | 71.6 | 55.4 | 57% | 29.9 | 0.0 | |||||||
| 01 | 16:47 | NW 7 | 10.00 | Partly Cloudy | SCT100 | 73.4 | 53.6 | 50% | 29.9 | 0.0 | |||||||
| 01 | 15:47 | NW 8 | 10.00 | Partly Cloudy | SCT075 | 73.4 | 53.6 | 50% | 29.92 | 0.0 | |||||||
| 01 | 14:47 | NW 8 | 10.00 | Partly Cloudy | SCT075 | 73.4 | 51.8 | 47% | 29.95 | 0.0 | |||||||
| 01 | 13:47 | NW 9 | 10.00 | Partly Cloudy | SCT075 | 71.6 | 51.8 | 50% | 29.96 | 0.0 | |||||||
| 01 | 12:47 | Calm | 10.00 | Partly Cloudy | SCT100 | 69.8 | 51.8 | 53% | 29.98 | 0.0 | |||||||
| 01 | 11:47 | NW 7 | 10.00 | Partly Cloudy | SCT100 | 68 | 51.8 | 56% | 29.99 | 0.0 | |||||||
| 01 | 08:47 | Vrbl 6 | 10.00 | Mostly Cloudy | BKN015 | 55.4 | 48.2 | 77% | 30 | 0.0 | |||||||
| 01 | 07:47 | Vrbl 5 | 10.00 | Overcast | OVC015 | 53.6 | 50 | 88% | 30 | 0.0 | |||||||
| 01 | 06:50 | Vrbl 5 | 10.00 | Overcast | OVC015 | 53.6 | 50 | 88% | 29.99 | 0.0 | |||||||
| 30 | 21:47 | NW 7 | 10.00 | Clear | SKC | 57.2 | 51.8 | 82% | 29.98 | 0.0 | |||||||
| 30 | 19:50 | NW 8 | 10.00 | Clear | SKC | 62.6 | 50 | 64% | 29.94 | 0.0 | |||||||
| 30 | 18:47 | NW 12 | 10.00 | Clear | SKC | 66.2 | 50 | 56% | 29.93 | 0.0 | |||||||
| 30 | 17:47 | NW 10 | 10.00 | Clear | SKC | 73.4 | 48.2 | 41% | 29.91 | 0.0 | |||||||
| 30 | 16:47 | NW 10 | 10.00 | Clear | SKC | 73.4 | 48.2 | 41% | 29.92 | 0.0 | |||||||
| 30 | 15:47 | NW 10 | 10.00 | Clear | SKC | 75.2 | 51.8 | 44% | 78 | 29.92 | 0.0 | ||||||
| 30 | 14:47 | NW 8 | 10.00 | Clear | SKC | 75.2 | 44.6 | 34% | 77 | 29.94 | 0.0 | ||||||
| 30 | 13:47 | NW 8 | 10.00 | Clear | SKC | 73.4 | 46.4 | 38% | 29.95 | 0.0 | |||||||
| 30 | 12:47 | NW 7 | 10.00 | Clear | SKC | 71.6 | 46.4 | 41% | 29.97 | 0.0 | |||||||
| 30 | 11:47 | Vrbl 3 | 10.00 | Clear | SKC | 84.2 | 48.2 | 29% | 82 | 29.99 | 0.0 | ||||||
| 30 | 10:47 | Calm | 10.00 | Clear | SKC | 62.6 | 48.2 | 60% | 30 | 0.0 | |||||||
| 30 | 09:47 | N 5 | 10.00 | Clear | SKC | 60.8 | 48.2 | 63% | 30.01 | 0.0 | |||||||
| 30 | 08:47 | N 3 | 10.00 | Partly Cloudy | FEW015 SCT025 | 57.2 | 48.2 | 72% | 30.01 | 0.0 | |||||||
| 30 | 07:47 | Calm | 10.00 | Partly Cloudy | SCT012 | 55.4 | 48.2 | 77% | 30 | 0.0 | |||||||
| 30 | 06:55 | Calm | 10.00 | Clear | SKC | 51.8 | 46.4 | 82% | 30 | 0.0 | |||||||
| 29 | 22:00 | N 6 | 10.00 | Clear | SKC | 57.2 | 50 | 77% | 30.05 | 0.0 | |||||||
| 29 | 20:50 | NW 5 | 10.00 | Clear | SKC | 60.8 | 48.2 | 63% | 30.04 | 0.0 | |||||||
| 29 | 19:47 | NW 14 | 10.00 | Clear | SKC | 64.4 | 46.4 | 52% | 30.01 | 0.0 | |||||||
| 29 | 18:47 | NW 13 | 10.00 | Clear | SKC | 68 | 48.2 | 49% | 30 | 0.0 | |||||||
| 29 | 17:47 | N 16 | 10.00 | A Few Clouds | FEW050 | 71.6 | 50 | 47% | 30 | 0.0 | |||||||
| 29 | 16:47 | NW 15 | 10.00 | A Few Clouds | FEW030 | 73.4 | 51.8 | 47% | 30 | 0.0 | |||||||
| 29 | 15:47 | NW 15 | 10.00 | A Few Clouds | FEW030 | 75.2 | 51.8 | 44% | 78 | 30.01 | 0.0 | ||||||
| 29 | 14:47 | NW 13 G 21 | 10.00 | Clear | SKC | 75.2 | 48.2 | 39% | 77 | 30.02 | 0.0 | ||||||
| 29 | 13:47 | NW 9 | 10.00 | Clear | SKC | 75.2 | 48.2 | 39% | 77 | 30.03 | 0.0 | ||||||
| 29 | 12:47 | NW 7 | 10.00 | Clear | SKC | 73.4 | 48.2 | 41% | 30.05 | 0.0 | |||||||
| 29 | 11:47 | NW 3 | 10.00 | Clear | SKC | 71.6 | 46.4 | 41% | 30.08 | 0.0 | |||||||
| Date | Time (pdt) | Wind (mph) | Vis. (mi.) | Weather | Sky Cond. | Air | Dwpt | Max. | Min. | Relative Humidity | Wind Chill (°F) | Heat Index (°F) | altimeter (in) | sea level (mb) | 1 hr | 3 hr | 6 hr |
| 6 hour | |||||||||||||||||
| Temperature (ºF) | Pressure | Precipitation (in) | |||||||||||||||